TimeCDT,TemperatureF,Dew PointF,Humidity,Sea Level PressureIn,VisibilityMPH,Wind Direction,Wind SpeedMPH,Gust SpeedMPH,PrecipitationIn,Events,Conditions,WindDirDegrees,DateUTC
12:15 AM,61.3,61.3,100,30.05,7.0,Calm,Calm,-,N/A,,Clear,0,2013-04-02 05:15:00
12:35 AM,61.2,61.2,100,30.04,0.8,Calm,Calm,-,N/A,,Mist,0,2013-04-02 05:35:00
12:55 AM,62.2,62.2,100,30.04,7.0,Calm,Calm,-,N/A,,Clear,0,2013-04-02 05:55:00
1:15 AM,60.8,60.8,100,30.04,3.0,Calm,Calm,-,N/A,,Clear,0,2013-04-02 06:15:00
1:35 AM,60.1,60.1,100,30.04,1.2,Calm,Calm,-,N/A,,Mist,0,2013-04-02 06:35:00
1:55 AM,59.4,59.4,100,30.04,0.8,Calm,Calm,-,N/A,,Overcast,0,2013-04-02 06:55:00
2:15 AM,59.0,59.0,100,30.04,1.5,Calm,Calm,-,N/A,,Overcast,0,2013-04-02 07:15:00
2:35 AM,59.0,59.0,100,30.03,0.2,Calm,Calm,-,N/A,Fog,Fog,0,2013-04-02 07:35:00
2:55 AM,58.6,58.6,100,30.04,0.2,Calm,Calm,-,N/A,Fog,Fog,0,2013-04-02 07:55:00
3:15 AM,58.6,58.6,100,30.03,0.2,Calm,Calm,-,N/A,Fog,Fog,0,2013-04-02 08:15:00
3:35 AM,58.1,58.1,100,30.03,0.2,Calm,Calm,-,N/A,Fog,Fog,0,2013-04-02 08:35:00
3:55 AM,58.1,58.1,100,30.03,0.2,Calm,Calm,-,N/A,Fog,Fog,0,2013-04-02 08:55:00
4:15 AM,57.6,57.6,100,30.02,0.2,Calm,Calm,-,N/A,Fog,Fog,0,2013-04-02 09:15:00
4:35 AM,57.4,57.4,100,30.03,0.5,Calm,Calm,-,N/A,Fog,Fog,0,2013-04-02 09:35:00
4:55 AM,57.4,57.4,100,30.03,0.5,Calm,Calm,-,N/A,Fog,Fog,0,2013-04-02 09:55:00
5:15 AM,57.2,57.2,100,30.04,0.5,Calm,Calm,-,N/A,Fog,Fog,0,2013-04-02 10:15:00
5:35 AM,57.2,57.2,100,30.05,0.5,NNE,3.5,-,N/A,Fog,Fog,20,2013-04-02 10:35:00
5:55 AM,58.5,58.5,100,30.05,0.2,Calm,Calm,-,N/A,Fog,Fog,0,2013-04-02 10:55:00
6:15 AM,58.1,58.1,100,30.05,0.2,Calm,Calm,-,N/A,Fog,Fog,0,2013-04-02 11:15:00
6:55 AM,58.3,58.3,100,30.06,0.8,Calm,Calm,-,N/A,,Overcast,0,2013-04-02 11:55:00
7:15 AM,58.1,58.1,100,30.06,0.2,Calm,Calm,-,N/A,Fog,Fog,0,2013-04-02 12:15:00
7:35 AM,59.5,59.5,100,30.07,1.2,Calm,Calm,-,N/A,,Overcast,0,2013-04-02 12:35:00
7:55 AM,60.4,60.4,100,30.08,0.2,ENE,4.6,-,N/A,Fog,Fog,70,2013-04-02 12:55:00
8:15 AM,62.2,62.2,100,30.07,0.2,ENE,3.5,-,N/A,Fog,Fog,70,2013-04-02 13:15:00
8:35 AM,64.4,64.4,100,30.07,0.8,East,3.5,-,N/A,,Overcast,80,2013-04-02 13:35:00
8:55 AM,65.1,65.1,100,30.08,0.8,East,3.5,-,N/A,,Overcast,80,2013-04-02 13:55:00
9:15 AM,66.2,66.2,100,30.06,1.8,ENE,8.1,-,N/A,,Overcast,70,2013-04-02 14:15:00
9:35 AM,66.4,66.4,100,30.07,3.0,East,4.6,-,N/A,,Overcast,90,2013-04-02 14:35:00
9:55 AM,66.9,66.9,100,30.09,5.0,East,3.5,-,N/A,,Mostly Cloudy,90,2013-04-02 14:55:00
10:15 AM,68.0,68.0,100,30.10,7.0,SE,10.4,-,N/A,,Scattered Clouds,140,2013-04-02 15:15:00
10:35 AM,67.3,67.3,100,30.11,10.0,SE,8.1,-,N/A,,Clear,130,2013-04-02 15:35:00
10:55 AM,74.1,62.4,67,30.10,10.0,ESE,10.4,16.1,N/A,,Clear,120,2013-04-02 15:55:00
11:15 AM,74.5,59.9,60,30.10,10.0,ESE,10.4,18.4,N/A,,Clear,120,2013-04-02 16:15:00
11:55 AM,75.4,61.2,61,30.07,10.0,SE,9.2,17.3,N/A,,Clear,130,2013-04-02 16:55:00
12:15 PM,76.1,61.2,60,30.06,10.0,ESE,10.4,16.1,N/A,,Clear,120,2013-04-02 17:15:00
12:35 PM,76.1,61.2,60,30.05,10.0,ESE,12.7,17.3,N/A,,Clear,120,2013-04-02 17:35:00
12:55 PM,76.5,60.3,57,30.03,10.0,ESE,8.1,-,N/A,,Clear,120,2013-04-02 17:55:00
1:15 PM,76.3,60.4,58,30.03,10.0,SE,11.5,-,N/A,,Clear,130,2013-04-02 18:15:00
1:35 PM,77.7,59.9,54,30.02,10.0,SSE,9.2,16.1,N/A,,Clear,150,2013-04-02 18:35:00
1:55 PM,76.5,61.7,60,30.02,10.0,SSE,12.7,17.3,N/A,,Clear,150,2013-04-02 18:55:00
2:15 PM,76.3,57.9,53,30.00,10.0,ESE,10.4,17.3,N/A,,Clear,120,2013-04-02 19:15:00
2:35 PM,77.2,61.0,57,29.99,10.0,ESE,5.8,-,N/A,,Scattered Clouds,110,2013-04-02 19:35:00
2:55 PM,77.9,59.9,54,29.99,10.0,SE,8.1,-,N/A,,Scattered Clouds,130,2013-04-02 19:55:00
3:15 PM,76.6,60.6,58,29.99,10.0,SE,5.8,-,N/A,,Scattered Clouds,130,2013-04-02 20:15:00
3:35 PM,76.1,59.7,57,29.98,10.0,ESE,5.8,-,N/A,,Scattered Clouds,110,2013-04-02 20:35:00
3:55 PM,75.7,61.9,62,29.96,10.0,East,6.9,-,N/A,Rain,Light Rain,100,2013-04-02 20:55:00
4:15 PM,75.7,61.3,61,29.97,10.0,ESE,5.8,-,N/A,,Scattered Clouds,110,2013-04-02 21:15:00
4:35 PM,75.6,61.2,61,29.97,10.0,ESE,5.8,-,N/A,,Scattered Clouds,120,2013-04-02 21:35:00
4:55 PM,75.0,60.6,61,29.97,10.0,East,5.8,-,N/A,,Mostly Cloudy,100,2013-04-02 21:55:00
5:15 PM,74.8,60.6,61,29.97,10.0,East,3.5,-,N/A,,Overcast,80,2013-04-02 22:15:00
5:35 PM,75.6,61.2,61,29.97,10.0,NE,3.5,-,N/A,,Overcast,50,2013-04-02 22:35:00
5:55 PM,75.2,59.2,57,29.97,10.0,ENE,3.5,-,N/A,,Overcast,60,2013-04-02 22:55:00
6:15 PM,74.7,60.4,61,29.97,10.0,NE,4.6,-,N/A,,Overcast,50,2013-04-02 23:15:00
6:35 PM,73.4,60.4,64,29.97,10.0,NE,4.6,-,N/A,,Overcast,50,2013-04-02 23:35:00
7:15 PM,72.0,60.4,67,29.96,10.0,ENE,4.6,-,N/A,,Mostly Cloudy,70,2013-04-03 00:15:00
7:35 PM,71.6,61.0,69,29.96,10.0,Calm,Calm,-,N/A,,Overcast,0,2013-04-03 00:35:00
7:55 PM,71.6,60.4,68,29.95,10.0,East,4.6,-,N/A,,Overcast,90,2013-04-03 00:55:00
8:15 PM,71.4,60.8,69,29.96,10.0,East,4.6,-,N/A,,Overcast,90,2013-04-03 01:15:00
8:35 PM,71.1,61.2,71,29.94,10.0,ENE,6.9,-,N/A,,Overcast,60,2013-04-03 01:35:00
8:55 PM,70.9,61.3,72,29.93,10.0,NE,6.9,-,N/A,,Mostly Cloudy,50,2013-04-03 01:55:00
9:15 PM,70.7,61.7,73,29.94,10.0,East,6.9,-,N/A,Thunderstorm,Thunderstorm,90,2013-04-03 02:15:00
9:35 PM,70.2,62.6,77,29.95,10.0,East,3.5,-,N/A,Thunderstorm,Unknown,80,2013-04-03 02:35:00
9:55 PM,68.2,64.8,89,29.96,4.0,ENE,4.6,-,N/A,Rain-Thunderstorm,Thunderstorms and Rain,70,2013-04-03 02:55:00
10:15 PM,67.3,66.7,98,29.99,4.0,SSW,3.5,-,N/A,Rain-Thunderstorm,Thunderstorms and Rain,200,2013-04-03 03:15:00
10:35 PM,66.4,66.4,100,29.97,4.0,NE,5.8,-,N/A,Rain,Light Rain,50,2013-04-03 03:35:00
10:55 PM,66.4,66.4,100,29.96,10.0,ENE,5.8,-,N/A,,Overcast,60,2013-04-03 03:55:00
11:15 PM,66.4,66.4,100,29.94,10.0,ENE,6.9,-,N/A,,Overcast,60,2013-04-03 04:15:00
11:35 PM,66.2,66.2,100,29.92,10.0,ENE,6.9,-,N/A,,Overcast,70,2013-04-03 04:35:00
11:55 PM,66.2,66.2,100,29.92,10.0,ENE,5.8,-,N/A,,Overcast,60,2013-04-03 04:55:00